TimeMST,TemperatureF,Dew PointF,Humidity,Sea Level PressureIn,VisibilityMPH,Wind Direction,Wind SpeedMPH,Gust SpeedMPH,PrecipitationIn,Events,Conditions,WindDirDegrees,DateUTC
12:53 AM,35.1,9.0,34,30.28,10.0,South,3.5,-,N/A,,Clear,170,2013-03-02 07:53:00
1:53 AM,35.6,8.6,33,30.35,10.0,Variable,3.5,-,N/A,,Clear,0,2013-03-02 08:53:00
2:53 AM,33.1,9.0,37,30.29,10.0,WNW,4.6,-,N/A,,Clear,290,2013-03-02 09:53:00
3:53 AM,28.9,9.0,43,30.32,10.0,West,5.8,-,N/A,,Clear,280,2013-03-02 10:53:00
4:53 AM,30.2,10.4,44,30.37,10.0,West,6.9,-,N/A,,Clear,270,2013-03-02 11:53:00
5:53 AM,33.1,10.0,38,30.34,10.0,West,9.2,-,N/A,,Clear,260,2013-03-02 12:53:00
6:53 AM,30.9,10.0,42,30.41,10.0,North,4.6,-,N/A,,Clear,10,2013-03-02 13:53:00
7:53 AM,39.0,10.0,30,30.41,10.0,North,4.6,-,N/A,,Clear,360,2013-03-02 14:53:00
8:53 AM,46.9,10.0,22,30.40,10.0,North,4.6,-,N/A,,Clear,360,2013-03-02 15:53:00
9:53 AM,52.0,10.9,19,30.38,10.0,Variable,4.6,-,N/A,,Clear,0,2013-03-02 16:53:00
10:53 AM,55.9,12.0,18,30.37,10.0,SE,8.1,-,N/A,,Clear,140,2013-03-02 17:53:00
11:53 AM,59.0,10.9,15,30.32,10.0,SE,11.5,16.1,N/A,,Clear,140,2013-03-02 18:53:00
12:53 PM,62.1,10.9,13,30.28,10.0,SSE,8.1,-,N/A,,Clear,150,2013-03-02 19:53:00
1:53 PM,64.0,12.0,13,30.23,10.0,SSE,9.2,-,N/A,,Clear,160,2013-03-02 20:53:00
2:53 PM,66.0,12.0,12,30.21,10.0,SSE,11.5,18.4,N/A,,Clear,160,2013-03-02 21:53:00
3:53 PM,64.9,12.0,13,30.19,10.0,SE,9.2,-,N/A,,Clear,140,2013-03-02 22:53:00
4:53 PM,64.9,12.0,13,30.18,10.0,SE,8.1,-,N/A,,Clear,130,2013-03-02 23:53:00
5:53 PM,59.0,12.2,16,30.22,10.0,SE,6.9,-,N/A,,Clear,130,2013-03-03 00:53:00
6:53 PM,52.0,12.9,21,30.19,10.0,South,8.1,-,N/A,,Clear,170,2013-03-03 01:53:00
7:53 PM,45.0,12.9,27,30.18,10.0,SSW,9.2,-,N/A,,Clear,200,2013-03-03 02:53:00
8:53 PM,50.0,14.0,24,30.15,10.0,South,9.2,-,N/A,,Clear,180,2013-03-03 03:53:00
9:53 PM,48.9,14.0,25,30.13,10.0,South,6.9,-,N/A,,Clear,180,2013-03-03 04:53:00
10:53 PM,46.9,14.0,27,30.12,10.0,South,10.4,-,N/A,,Clear,180,2013-03-03 05:53:00
11:53 PM,46.0,14.0,28,30.09,10.0,South,6.9,-,N/A,,Clear,180,2013-03-03 06:53:00